TimeEST,TemperatureF,Dew PointF,Humidity,Sea Level PressureIn,VisibilityMPH,Wind Direction,Wind SpeedMPH,Gust SpeedMPH,PrecipitationIn,Events,Conditions,WindDirDegrees,DateUTC
12:53 AM,30.0,18.0,61,30.16,10.0,NNW,13.8,23.0,N/A,,Overcast,330,2013-02-22 05:53:00
1:53 AM,30.0,18.0,61,30.17,10.0,NNW,20.7,26.5,N/A,,Overcast,330,2013-02-22 06:53:00
2:53 AM,30.0,19.0,64,30.19,10.0,North,15.0,29.9,N/A,,Overcast,350,2013-02-22 07:53:00
3:53 AM,30.0,19.0,64,30.21,10.0,North,15.0,24.2,N/A,,Overcast,350,2013-02-22 08:53:00
4:53 AM,30.9,21.0,67,30.22,10.0,North,13.8,23.0,N/A,,Overcast,360,2013-02-22 09:53:00
5:53 AM,30.9,21.0,67,30.28,10.0,North,15.0,21.9,N/A,,Overcast,350,2013-02-22 10:53:00
6:53 AM,30.9,21.9,69,30.30,10.0,North,17.3,21.9,N/A,,Overcast,350,2013-02-22 11:53:00
7:53 AM,32.0,21.9,66,30.33,10.0,North,18.4,24.2,N/A,,Overcast,350,2013-02-22 12:53:00
8:53 AM,33.1,21.9,64,30.33,10.0,North,15.0,23.0,N/A,,Overcast,360,2013-02-22 13:53:00
9:21 AM,33.8,23.0,65,30.33,10.0,North,11.5,21.9,N/A,,Overcast,360,2013-02-22 14:21:00
9:53 AM,34.0,23.0,64,30.34,10.0,North,11.5,-,N/A,,Overcast,10,2013-02-22 14:53:00
10:53 AM,36.0,24.1,62,30.34,10.0,North,11.5,-,N/A,,Overcast,350,2013-02-22 15:53:00
11:53 AM,37.9,26.1,62,30.32,10.0,North,9.2,-,N/A,,Overcast,350,2013-02-22 16:53:00
12:53 PM,37.0,24.1,59,30.32,10.0,North,13.8,-,N/A,,Overcast,10,2013-02-22 17:53:00
1:11 PM,37.4,24.8,60,30.32,10.0,North,11.5,-,N/A,,Overcast,10,2013-02-22 18:11:00
1:53 PM,37.9,23.0,55,30.33,10.0,NNE,13.8,20.7,N/A,,Overcast,20,2013-02-22 18:53:00
2:53 PM,37.0,23.0,57,30.32,10.0,North,12.7,-,N/A,,Overcast,10,2013-02-22 19:53:00
3:53 PM,36.0,24.1,62,30.34,10.0,NE,10.4,-,N/A,,Overcast,50,2013-02-22 20:53:00
4:53 PM,36.0,24.1,62,30.32,10.0,NE,9.2,-,N/A,,Overcast,40,2013-02-22 21:53:00
5:53 PM,35.1,24.1,64,30.34,10.0,North,6.9,-,N/A,,Overcast,10,2013-02-22 22:53:00
6:53 PM,34.0,25.0,70,30.33,10.0,NE,6.9,-,N/A,,Overcast,50,2013-02-22 23:53:00
7:38 PM,33.8,24.8,70,30.34,10.0,NNE,3.5,-,N/A,,Overcast,20,2013-02-23 00:38:00
7:53 PM,34.0,24.1,67,30.35,10.0,Calm,Calm,-,N/A,,Overcast,0,2013-02-23 00:53:00
8:53 PM,33.1,24.1,70,30.35,10.0,NW,3.5,-,N/A,,Overcast,320,2013-02-23 01:53:00
9:53 PM,33.1,25.0,72,30.34,10.0,North,3.5,-,N/A,,Overcast,10,2013-02-23 02:53:00
10:13 PM,33.8,24.8,70,30.33,10.0,NE,3.5,-,N/A,,Overcast,40,2013-02-23 03:13:00
10:53 PM,33.1,26.1,75,30.35,10.0,NW,3.5,-,N/A,,Overcast,310,2013-02-23 03:53:00
11:53 PM,33.1,26.1,75,30.33,10.0,NE,3.5,-,N/A,,Overcast,40,2013-02-23 04:53:00